Weather observations for the past three days for
Winchester Municipal Airport
Imperial (Metric)
Date Time (cdt) Wind (mph) Vis. (mi.) Weather Sky Cond. Temperature (ºF) Relative Humidity Wind Chill (°F) Heat Index (°F) Pressure Precipitation (in)
Air Dwpt 6 hour altimeter (in) sea level (mb) 1 hr 3 hr 6 hr
Max. Min.
19 12:35 Calm 10.00 Overcast OVC044 73.4 69.8 89% 30.11 0.0
19 12:15 Calm 10.00 Overcast OVC043 73.4 69.8 89% 30.09 0.0
19 11:55 Calm 10.00 Overcast OVC042 73.4 69.8 89% 30.09 0.0 0.02
19 11:35 Calm 10.00 Overcast FEW030 OVC042 71.6 69.8 94% 30.1 0.0
19 11:15 Calm 5.00 Fog/Mist OVC044 71.6 68 88% 30.1 0.0
19 10:55 Calm 10.00 Overcast OVC045 75.2 66.2 74% 77 30.1 0.0
19 10:35 Calm 10.00 Overcast BKN046 OVC050 75.2 66.2 74% 77 30.09 0.0
19 10:15 Calm 10.00 Overcast SCT045 OVC050 75.2 66.2 74% 77 30.09 0.0
19 09:55 Calm 10.00 Overcast OVC050 75.2 66.2 74% 77 30.09 0.0
19 09:35 Calm 10.00 Mostly Cloudy SCT049 SCT055 BKN100 75.2 66.2 74% 77 30.09 0.0
19 09:15 Calm 10.00 Mostly Cloudy BKN060 BKN070 BKN110 75.2 66.2 74% 77 30.09 0.0
19 08:55 Calm 10.00 Mostly Cloudy BKN060 BKN100 73.4 66.2 78% 30.09 0.0
19 08:35 Calm 10.00 Mostly Cloudy BKN060 BKN090 73.4 66.2 78% 30.09 0.0
19 08:15 Calm 10.00 Mostly Cloudy SCT055 BKN070 BKN095 71.6 66.2 83% 30.08 0.0
19 07:55 Calm 10.00 Mostly Cloudy FEW070 BKN100 BKN120 71.6 66.2 83% 30.08 0.0
19 07:35 Calm 10.00 Mostly Cloudy BKN065 BKN075 BKN120 69.8 66.2 88% 30.08 0.0
19 07:15 Calm 10.00 Overcast OVC060 69.8 66.2 88% 30.08 0.0
19 06:55 Calm 10.00 Mostly Cloudy SCT060 BKN075 BKN085 69.8 66.2 88% 30.08 0.0
19 06:35 Calm 10.00 Overcast BKN075 BKN085 OVC120 68 66.2 94% 30.08 0.0
19 06:15 Calm 10.00 Overcast OVC070 68 66.2 94% 30.07 0.0
19 05:55 Calm 10.00 Overcast OVC070 68 66.2 94% 30.06 0.0
19 05:35 Calm 10.00 Overcast OVC070 68 66.2 94% 30.06 0.0
19 05:15 Calm 10.00 Overcast BKN065 OVC100 68 64.4 88% 30.06 0.0
19 04:55 Calm 10.00 Overcast FEW060 OVC100 69.8 66.2 88% 30.05 0.0
19 04:35 Calm 10.00 Overcast SCT070 OVC110 68 66.2 94% 30.05 0.0
19 04:15 Calm 10.00 Overcast BKN065 BKN095 OVC120 69.8 66.2 88% 30.05 0.0
19 03:55 Calm 10.00 Overcast SCT065 BKN080 OVC095 69.8 66.2 88% 30.05 0.0
19 03:35 Calm 10.00 Overcast BKN070 OVC085 69.8 66.2 88% 30.05 0.0
19 03:15 Calm 10.00 Overcast FEW075 BKN090 OVC110 69.8 66.2 88% 30.05 0.0
19 02:55 Calm 10.00 Overcast FEW070 FEW075 OVC090 69.8 66.2 88% 30.05 0.0
19 02:35 Calm 10.00 Overcast FEW070 OVC090 71.6 66.2 83% 30.05 0.0
19 02:15 Calm 10.00 Overcast OVC090 71.6 66.2 83% 30.06 0.0
19 01:55 Calm 10.00 Overcast OVC090 71.6 66.2 83% 30.06 0.0
19 01:35 Calm 10.00 Overcast OVC090 71.6 66.2 83% 30.07 0.0
19 01:15 Calm 10.00 Mostly Cloudy BKN095 69.8 66.2 88% 30.07 0.0
19 00:55 Calm 10.00 Fair CLR 69.8 66.2 88% 30.07 0.0
19 00:35 Calm 10.00 Partly Cloudy SCT075 71.6 66.2 83% 30.07 0.0
19 00:15 Calm 10.00 Partly Cloudy SCT075 71.6 66.2 83% 30.07 0.0
18 23:55 Calm 10.00 Fair CLR 71.6 66.2 83% 30.07 0.0
18 23:35 Calm 10.00 Fair CLR 71.6 66.2 83% 30.07 0.0
18 23:15 Calm 10.00 Fair CLR 73.4 66.2 78% 30.07 0.0
18 22:55 Calm 10.00 Fair CLR 73.4 66.2 78% 30.07 0.0
18 22:35 Calm 10.00 Fair CLR 73.4 68 83% 30.07 0.0
18 22:15 Calm 10.00 Fair CLR 75.2 68 78% 76 30.07 0.0
18 21:55 Calm 10.00 Fair CLR 75.2 68 78% 76 30.07 0.0
18 21:35 Calm 10.00 Fair CLR 75.2 68 78% 76 30.07 0.0
18 21:15 Calm 10.00 A Few Clouds FEW042 75.2 68 78% 76 30.06 0.0
18 20:55 Calm 10.00 A Few Clouds FEW039 FEW046 75.2 68 78% 76 30.06 0.0
18 20:35 Calm 10.00 Fair CLR 75.2 68 78% 76 30.05 0.0
18 20:15 Calm 10.00 Fair CLR 78.8 68 70% 81 30.04 0.0
18 19:55 Calm 10.00 Fair CLR 78.8 68 70% 81 30.03 0.0
18 19:35 Calm 10.00 Fair CLR 80.6 68 66% 83 30.02 0.0
18 19:15 Calm 10.00 Fair CLR 80.6 68 66% 83 30.01 0.0
18 18:55 Calm 10.00 A Few Clouds FEW037 82.4 69.8 66% 86 30.01 0.0
18 18:35 Calm 10.00 A Few Clouds FEW037 FEW085 82.4 68 62% 85 30.01 0.0
18 18:15 Calm 10.00 A Few Clouds FEW085 84.2 68 58% 87 30 0.0
18 17:55 Calm 10.00 A Few Clouds FEW040 FEW050 FEW060 82.4 68 62% 85 30 0.0
18 17:35 Calm 10.00 Partly Cloudy SCT041 BKN050 SCT060 82.4 68 62% 85 30 0.0
18 17:15 Calm 10.00 A Few Clouds FEW040 84.2 68 58% 87 29.99 0.0
18 16:55 Calm 10.00 A Few Clouds FEW039 84.2 68 58% 87 30 0.0
18 16:35 Calm 10.00 Fair CLR 84.2 69.8 62% 88 30.01 0.0
18 16:15 Calm 10.00 Partly Cloudy FEW037 FEW044 SCT085 84.2 69.8 62% 88 30.01 0.0
18 15:55 Calm 10.00 Mostly Cloudy SCT036 SCT044 BKN060 84.2 69.8 62% 88 30.01 0.0
18 15:35 Calm 10.00 Partly Cloudy FEW034 SCT060 SCT070 84.2 69.8 62% 88 30.02 0.0
18 15:15 Calm 10.00 Mostly Cloudy SCT032 SCT042 BKN055 82.4 69.8 66% 86 30.02 0.0
18 14:55 Calm 10.00 Mostly Cloudy SCT031 BKN043 BKN060 82.4 69.8 66% 86 30.02 0.0
18 14:35 Calm 10.00 Mostly Cloudy FEW026 SCT031 BKN070 82.4 69.8 66% 86 30.03 0.0
18 14:15 Calm 10.00 Mostly Cloudy SCT026 SCT037 BKN047 82.4 71.6 70% 87 30.03 0.0
18 13:55 Calm 10.00 Partly Cloudy FEW026 SCT034 82.4 71.6 70% 87 30.04 0.0
18 13:35 Calm 10.00 Mostly Cloudy FEW024 SCT029 BKN065 80.6 69.8 70% 84 30.05 0.0
18 13:15 Calm 10.00 Mostly Cloudy BKN024 BKN031 BKN046 80.6 71.6 74% 85 30.05 0.0
18 12:55 Calm 10.00 Mostly Cloudy BKN021 BKN027 BKN032 80.6 71.6 74% 85 30.06 0.0
18 12:35 Calm 10.00 Mostly Cloudy BKN020 BKN025 BKN110 78.8 71.6 79% 82 30.06 0.0
18 12:15 Calm 10.00 Overcast FEW018 FEW023 OVC110 78.8 71.6 79% 82 30.06 0.0
18 11:55 Calm 10.00 Mostly Cloudy BKN100 78.8 71.6 79% 82 30.07 0.0
18 11:35 Calm 10.00 Mostly Cloudy FEW023 SCT100 BKN120 77 71.6 83% 78 30.06 0.0
18 11:15 Calm 10.00 Mostly Cloudy FEW015 SCT023 BKN110 77 71.6 83% 78 30.06 0.0
18 10:55 Calm 10.00 Mostly Cloudy SCT015 BKN110 77 73.4 89% 78 30.06 0.0
18 10:35 Calm 10.00 Mostly Cloudy FEW014 BKN110 77 73.4 89% 78 30.06 0.0
18 10:15 Calm 10.00 Mostly Cloudy BKN110 77 73.4 89% 78 30.05 0.0
18 09:55 Calm 10.00 Mostly Cloudy SCT015 BKN120 77 73.4 89% 78 30.05 0.0
18 09:35 Calm 10.00 Mostly Cloudy BKN014 77 73.4 89% 78 30.04 0.0
18 09:15 Calm 10.00 Mostly Cloudy BKN013 77 73.4 89% 78 30.04 0.0
18 08:55 Calm 10.00 Mostly Cloudy BKN013 77 73.4 89% 78 30.04 0.0
18 08:35 Calm 10.00 A Few Clouds FEW010 75.2 73.4 94% 74 30.03 0.0
18 08:15 Calm 10.00 Partly Cloudy SCT012 SCT016 75.2 73.4 94% 74 30.03 0.0
18 07:55 Calm 10.00 Mostly Cloudy BKN012 BKN016 75.2 73.4 94% 74 30.03 0.0 0.01
18 07:35 Calm 9.00 Mostly Cloudy BKN011 BKN120 75.2 75.2 100% 73 30.03 0.0
18 07:15 Calm 9.00 A Few Clouds FEW120 73.4 73.4 100% 30.03 0.0
18 06:55 Calm 7.00 A Few Clouds FEW110 73.4 73.4 100% 30.02 0.0
18 06:35 Calm 8.00 Mostly Cloudy FEW050 FEW080 BKN100 71.6 71.6 100% 30.02 0.0
18 06:15 Calm 5.00 Fog/Mist SCT047 BKN070 OVC095 71.6 71.6 100% 30.02 0.0
18 05:55 Calm 5.00 Fog/Mist FEW049 BKN055 OVC070 71.6 71.6 100% 30.01 0.0
18 05:35 Calm 6.00 Fog/Mist FEW049 BKN060 OVC100 71.6 71.6 100% 30.01 0.0
18 05:15 Calm 6.00 Fog/Mist SCT050 BKN060 OVC080 71.6 71.6 100% 30 0.0
18 04:55 Calm 5.00 Fog/Mist BKN050 OVC065 71.6 71.6 100% 30 0.0
18 04:35 Calm 7.00 Partly Cloudy SCT050 71.6 71.6 100% 30 0.0
18 04:15 Calm 4.00 Fog/Mist FEW041 FEW050 FEW065 73.4 73.4 100% 30 0.0
18 03:55 Calm 6.00 Fog/Mist FEW031 FEW045 BKN055 73.4 73.4 100% 30 0.0
18 03:35 Calm 8.00 Mostly Cloudy BKN060 73.4 73.4 100% 30 0.0
18 03:15 Calm 7.00 Mostly Cloudy BKN060 73.4 73.4 100% 30 0.0
18 02:55 Calm 8.00 Overcast OVC060 73.4 73.4 100% 30 0.0
18 02:35 Calm 7.00 Partly Cloudy SCT060 73.4 73.4 100% 30 0.0
18 02:15 Calm 9.00 Fair CLR 73.4 73.4 100% 29.99 0.0
18 01:55 Calm 9.00 A Few Clouds FEW037 FEW070 73.4 73.4 100% 30 0.0
18 01:35 Calm 10.00 Mostly Cloudy SCT038 SCT045 BKN070 75.2 75.2 100% 73 30 0.0
18 01:15 Calm 9.00 Overcast BKN036 OVC043 75.2 75.2 100% 73 30.01 0.0
18 00:55 Calm 10.00 Overcast BKN035 OVC041 75.2 75.2 100% 73 30.01 0.0
18 00:35 Calm 9.00 Overcast BKN038 OVC044 75.2 75.2 100% 73 30.01 0.0
18 00:15 Calm 10.00 Overcast BKN039 BKN049 OVC070 75.2 75.2 100% 73 30.02 0.0
17 23:55 Calm 10.00 Overcast SCT040 BKN045 OVC075 75.2 73.4 94% 74 30.02 0.0
17 23:35 Calm 10.00 Mostly Cloudy BKN042 BKN050 77 73.4 89% 78 30.01 0.0
17 23:15 Calm 10.00 Mostly Cloudy FEW042 SCT050 BKN060 77 73.4 89% 78 30 0.0
17 22:55 Calm 10.00 Overcast FEW036 SCT042 OVC060 77 73.4 89% 78 30 0.0
17 22:35 Calm 10.00 Overcast SCT035 BKN050 OVC060 77 73.4 89% 78 30.01 0.0
17 22:15 Calm 10.00 Overcast FEW033 BKN050 OVC055 77 73.4 89% 78 30 0.0
17 21:55 Calm 10.00 Partly Cloudy FEW032 SCT050 77 73.4 89% 78 29.99 0.0
17 21:35 Calm 10.00 Mostly Cloudy BKN033 BKN038 BKN060 78.8 73.4 84% 82 29.99 0.0
17 21:15 Calm 10.00 Overcast SCT030 OVC036 78.8 73.4 84% 82 30 0.0
17 20:55 Calm 9.00 Overcast OVC028 78.8 75.2 89% 82 30 0.0
17 20:35 Calm 10.00 Overcast SCT027 BKN033 OVC040 80.6 75.2 84% 86 30 0.0
17 20:15 Calm 10.00 Partly Cloudy SCT039 80.6 75.2 84% 86 30 0.0
17 19:55 Calm 10.00 Fair CLR 80.6 75.2 84% 86 30 0.0
17 19:35 Calm 10.00 Fair CLR 82.4 75.2 79% 89 29.99 0.0
17 19:15 Calm 10.00 Fair CLR 82.4 75.2 79% 89 29.97 0.0
17 18:55 Calm 10.00 Fair CLR 82.4 75.2 79% 89 29.96 0.0
17 18:35 Calm 10.00 Fair CLR 82.4 75.2 79% 89 29.95 0.0
17 18:15 Calm 10.00 Fair CLR 82.4 75.2 79% 89 29.94 0.0
17 17:55 Calm 10.00 Fair CLR 82.4 75.2 79% 89 29.95 0.0
17 17:35 Calm 10.00 Fair CLR 82.4 75.2 79% 89 29.95 0.0
17 17:15 Calm 10.00 Fair CLR 80.6 73.4 79% 85 29.95 0.0
17 16:55 Calm 10.00 A Few Clouds FEW049 80.6 75.2 84% 86 29.96 0.0
17 16:35 Calm 10.00 Fair CLR 80.6 73.4 79% 85 29.95 0.0
17 16:15 Calm 10.00 Fair CLR 80.6 73.4 79% 85 29.95 0.0
17 15:55 Calm 10.00 Fair CLR 78.8 71.6 79% 82 29.96 0.0 0.16
17 15:35 Calm 8.00 Partly Cloudy FEW005 FEW028 SCT050 77 71.6 83% 78 29.97 0.0
17 15:15 Calm 2.00 Overcast with Haze FEW007 BKN046 OVC055 75.2 68 78% 76 29.98 0.0
17 14:55 Calm 10.00 Mostly Cloudy BKN047 BKN055 86 68 55% 89 29.96 0.0
17 14:35 Calm 10.00 A Few Clouds FEW050 91.4 71.6 52% 99 29.94 0.0
17 14:15 Calm 10.00 A Few Clouds FEW047 91.4 71.6 52% 99 29.95 0.0
17 13:55 Calm 10.00 Partly Cloudy SCT047 91.4 71.6 52% 99 29.95 0.0
17 13:35 Calm 10.00 A Few Clouds FEW044 FEW050 91.4 73.4 56% 100 29.97 0.0
17 13:15 Calm 10.00 Fair CLR 91.4 73.4 56% 100 29.97 0.0
17 12:55 Calm 10.00 A Few Clouds FEW035 FEW055 FEW100 89.6 73.4 59% 98 29.99 0.0
17 12:35 Calm 10.00 Partly Cloudy SCT035 89.6 75.2 63% 100 30 0.0
17 12:15 Calm 10.00 Fair CLR 89.6 75.2 63% 100 30.01 0.0
17 11:55 Calm 9.00 Fair CLR 87.8 75.2 66% 98 30.01 0.0
17 11:35 Calm 10.00 Fair CLR 87.8 75.2 66% 98 30.01 0.0
17 11:15 Calm 10.00 A Few Clouds FEW080 87.8 75.2 66% 98 30.02 0.0
17 10:55 Calm 10.00 Fair CLR 86 75.2 70% 95 30.02 0.0
17 10:35 Calm 9.00 Fair CLR 86 73.4 66% 93 30.03 0.0
17 10:15 Calm 10.00 Fair CLR 84.2 73.4 70% 91 30.03 0.0
17 09:55 Calm 10.00 Fair CLR 84.2 73.4 70% 91 30.02 0.0
17 09:35 Calm 10.00 A Few Clouds FEW055 84.2 73.4 70% 91 30.02 0.0
17 09:15 Calm 10.00 Partly Cloudy FEW045 FEW055 SCT080 82.4 73.4 74% 88 30.02 0.0
17 08:55 Calm 10.00 Overcast SCT045 BKN055 OVC080 80.6 73.4 79% 85 30.02 0.0
17 08:35 Calm 10.00 Mostly Cloudy BKN045 BKN050 BKN065 80.6 71.6 74% 85 30.02 0.0
17 08:15 Calm 10.00 A Few Clouds FEW044 80.6 73.4 79% 85 30.02 0.0
17 07:35 Calm 10.00 Fair CLR 77 73.4 89% 78 30.01 0.0
17 07:15 Calm 10.00 Fair CLR 75.2 73.4 94% 74 30.01 0.0
17 06:55 Calm 10.00 Fair CLR 73.4 73.4 100% 30 0.0
17 06:35 Calm 10.00 Fair CLR 73.4 71.6 94% 30 0.0
17 06:15 Calm 10.00 Fair CLR 71.6 71.6 100% 30 0.0
17 05:55 Calm 10.00 Fair CLR 71.6 71.6 100% 30 0.0
17 05:35 Calm 10.00 Fair CLR 71.6 71.6 100% 30 0.0
17 05:15 Calm 10.00 A Few Clouds FEW080 73.4 71.6 94% 30.01 0.0
17 04:55 Calm 10.00 Overcast OVC080 73.4 71.6 94% 30.01 0.0
17 04:35 Calm 10.00 Mostly Cloudy BKN075 BKN085 73.4 71.6 94% 30.01 0.0
17 04:15 Calm 10.00 A Few Clouds FEW080 73.4 71.6 94% 30.01 0.0
17 03:55 Calm 10.00 Mostly Cloudy SCT060 BKN075 73.4 71.6 94% 29.99 0.0
17 03:35 Calm 10.00 Overcast BKN055 OVC070 73.4 71.6 94% 29.98 0.0
17 03:15 Calm 10.00 Overcast OVC055 73.4 71.6 94% 29.98 0.0
17 02:55 Calm 10.00 Overcast OVC050 73.4 71.6 94% 29.97 0.0
17 02:35 Calm 10.00 Partly Cloudy SCT055 71.6 71.6 100% 29.96 0.0
17 02:15 Calm 10.00 Fair CLR 73.4 71.6 94% 29.96 0.0
17 01:55 Calm 10.00 Fair CLR 75.2 71.6 89% 75 29.96 0.0
17 01:35 Calm 10.00 A Few Clouds FEW050 73.4 71.6 94% 29.96 0.0
17 01:15 Calm 10.00 A Few Clouds FEW050 73.4 71.6 94% 29.97 0.0
17 00:55 Calm 10.00 A Few Clouds FEW050 73.4 71.6 94% 29.97 0.0
17 00:35 Calm 10.00 A Few Clouds FEW046 FEW055 73.4 71.6 94% 29.97 0.0
17 00:15 Calm 10.00 A Few Clouds FEW055 73.4 71.6 94% 29.97 0.0
16 23:55 Calm 10.00 Fair CLR 75.2 69.8 83% 75 29.98 0.0
16 23:35 Calm 10.00 Fair CLR 75.2 71.6 89% 75 29.98 0.0
16 23:15 Calm 10.00 Fair CLR 75.2 71.6 89% 75 29.98 0.0
16 22:55 Calm 10.00 Fair CLR 73.4 71.6 94% 29.99 0.0
16 22:35 Calm 10.00 Fair CLR 73.4 71.6 94% 29.98 0.0
16 22:15 Calm 10.00 Fair CLR 73.4 71.6 94% 29.98 0.0
16 21:55 Calm 10.00 Fair CLR 73.4 71.6 94% 29.98 0.0
16 21:35 Calm 10.00 A Few Clouds FEW043 FEW049 73.4 71.6 94% 29.98 0.0
16 21:15 Calm 10.00 A Few Clouds FEW042 73.4 71.6 94% 29.98 0.0
16 20:55 Calm 10.00 Fair CLR 75.2 71.6 89% 75 29.98 0.0
16 20:35 Calm 10.00 Fair CLR 77 71.6 83% 78 29.97 0.0
16 20:15 Calm 10.00 Fair CLR 75.2 73.4 94% 74 29.97 0.0
16 19:55 Calm 10.00 Fair CLR 75.2 73.4 94% 74 29.97 0.0
16 19:35 Calm 10.00 Fair CLR 75.2 73.4 94% 74 29.98 0.0
16 19:15 Calm 10.00 Fair CLR 75.2 73.4 94% 74 29.98 0.0
16 18:55 Calm 10.00 Fair CLR 77 73.4 89% 78 29.98 0.0
16 18:35 Calm 10.00 Fair CLR 77 73.4 89% 78 29.98 0.0
16 18:15 Calm 10.00 Fair CLR 77 73.4 89% 78 29.97 0.0
16 17:55 Calm 10.00 Fair CLR 75.2 73.4 94% 74 29.97 0.0
16 17:35 Calm 10.00 Fair CLR 77 73.4 89% 78 29.97 0.0
16 17:15 Calm 10.00 A Few Clouds FEW095 77 73.4 89% 78 29.99 0.0
16 16:55 Calm 10.00 Partly Cloudy SCT095 77 75.2 94% 78 29.99 0.0
16 16:35 Calm 10.00 Partly Cloudy SCT090 77 73.4 89% 78 29.99 0.0
16 16:15 Calm 10.00 Mostly Cloudy FEW032 FEW060 BKN090 77 73.4 89% 78 29.99 0.0
16 15:55 Calm 5.00 Fog/Mist FEW030 FEW047 BKN090 77 73.4 89% 78 30 0.0
16 15:35 Calm 10.00 Partly Cloudy SCT095 77 75.2 94% 78 30.01 0.0
16 15:15 Calm 10.00 A Few Clouds FEW065 FEW120 77 75.2 94% 78 30.01 0.0
16 14:55 Calm 10.00 A Few Clouds FEW070 FEW100 FEW120 77 71.6 83% 78 30 0.0
16 14:35 Calm 10.00 Fair CLR 77 71.6 83% 78 30 0.0
16 14:15 Calm 10.00 A Few Clouds FEW028 75.2 73.4 94% 74 29.99 0.0
16 13:55 Calm 1.25 Fog/Mist SCT004 BKN029 OVC040 75.2 71.6 89% 75 29.99 0.0 0.22
16 13:35 Calm 1.00 Mostly Cloudy with Haze SCT004 SCT041 BKN048 77 71.6 83% 78 29.99 0.0
16 13:15 Calm 10.00 A Few Clouds FEW047 FEW055 93.2 69.8 47% 99 29.97 0.0
16 12:55 Calm 10.00 A Few Clouds FEW045 91.4 71.6 52% 99 29.98 0.0
Date Time (cdt) Wind (mph) Vis. (mi.) Weather Sky Cond. Air Dwpt Max. Min. Relative Humidity Wind Chill (°F) Heat Index (°F) altimeter (in) sea level (mb) 1 hr 3 hr 6 hr
6 hour
Temperature (ºF) Pressure Precipitation (in)